Shungnak AP, Shungnak, AK, AK

1:24 AM AKST on December 09, 2019 (GMT -0900)
Shungnak AP, Shungnak, AK

Weather History for PAGH - October, 2019

Change the Weather History Date:

Sunday, October 13, 2019

  Actual Average (WUND) Record (WUND)
Temperature  
Mean Temperature 26 °F -  
Max Temperature 32 °F - - (-1)
Min Temperature 21 °F - - (-1)
Degree Days  
Heating Degree Days 38    
Moisture  
Dew Point 24 °F    
Average Humidity 88    
Maximum Humidity 93    
Minimum Humidity 75    
Precipitation  
Precipitation 0.00 in - - ()
Sea Level Pressure  
Sea Level Pressure 30.19 in    
Wind  
Wind Speed 5 mph (ESE)    
Max Wind Speed 16 mph    
Max Gust Speed -    
Visibility 10 miles    
Events      
Averages and records for this station are not official NWS values.
T = Trace of Precipitation, MM = Missing Value Source: NWS Daily Summary

Daily Weather History Graph

Daily Weather History Graph

Search for Another Location

Airport or City:

Astronomy

Oct. 13, 2019 Rise Set
Actual Time 9:21 AM AKDT 7:06 PM AKDT
Civil Twilight 8:27 AM AKDT 8:00 PM AKDT
Nautical Twilight 7:25 AM AKDT 9:01 PM AKDT
Astronomical Twilight 6:21 AM AKDT 10:05 PM AKDT
Moon 7:51 PM AKDT (10/13) 8:36 AM AKDT (10/13)
Length of Visible Light 11h 33m
Length of Day
9h 45m
Full, 100% of the Moon is Illuminated
Oct 13
Full
Oct 13
Full
Oct 21
Last Quarter
Oct 27
New
Nov 4
First Quarter

Hourly Weather History & Observations

Time (AKDT) Temp. Windchill Dew Point Humidity Pressure Visibility Wind Dir Wind Speed Gust Speed Precip Events Conditions
12:56 AM 28.9 °F - 26.1 °F 89% 30.22 in 10.0 mi Calm Calm - N/A   Overcast
1:56 AM 28.9 °F - 26.1 °F 89% 30.22 in 10.0 mi Calm Calm - N/A   Overcast
2:56 AM 28.0 °F 24.2 °F 26.1 °F 92% 30.22 in 10.0 mi ESE 3.5 mph - N/A   Overcast
3:56 AM 28.0 °F 24.2 °F 26.1 °F 92% 30.22 in 10.0 mi SSE 3.5 mph - N/A   Overcast
4:56 AM 28.0 °F 24.2 °F 26.1 °F 92% 30.20 in 10.0 mi ESE 3.5 mph - N/A   Overcast
5:12 AM 28.4 °F - 26.6 °F 93% 30.18 in 10.0 mi Calm Calm - N/A   Overcast
5:56 AM 28.0 °F 24.2 °F 26.1 °F 92% 30.20 in 10.0 mi ESE 3.5 mph - N/A   Overcast
6:07 AM 28.4 °F 24.6 °F 26.6 °F 93% 30.18 in 10.0 mi ESE 3.5 mph - N/A   Overcast
6:14 AM 28.4 °F 24.6 °F 26.6 °F 93% 30.18 in 10.0 mi ESE 3.5 mph - N/A   Overcast
6:21 AM 28.4 °F 23.3 °F 26.6 °F 93% 30.18 in 10.0 mi SE 4.6 mph - N/A   Overcast
6:36 AM 28.4 °F 24.6 °F 26.6 °F 93% 30.18 in 10.0 mi SE 3.5 mph - N/A   Overcast
6:56 AM 28.0 °F 24.2 °F 26.1 °F 92% 30.20 in 10.0 mi East 3.5 mph - N/A   Overcast
7:21 AM 28.4 °F 24.6 °F 26.6 °F 93% 30.18 in 10.0 mi ESE 3.5 mph - N/A   Overcast
7:30 AM 28.4 °F 24.6 °F 26.6 °F 93% 30.18 in 10.0 mi ESE 3.5 mph - N/A   Overcast
7:40 AM 28.4 °F 23.3 °F 26.6 °F 93% 30.18 in 10.0 mi ESE 4.6 mph - N/A   Overcast
7:56 AM 28.0 °F - 26.1 °F 92% 30.20 in 10.0 mi Calm Calm - N/A   Overcast
8:56 AM 27.0 °F - 25.0 °F 92% 30.20 in 10.0 mi Calm Calm - N/A   Overcast
9:56 AM 27.0 °F 19.5 °F 25.0 °F 92% 30.21 in 10.0 mi ESE 6.9 mph - N/A   Overcast
10:56 AM 26.1 °F 16.2 °F 23.0 °F 88% 30.21 in 10.0 mi ESE 10.4 mph - N/A   Overcast
11:56 AM 25.0 °F 13.6 °F 23.0 °F 92% 30.22 in 10.0 mi ESE 12.7 mph - N/A   Overcast
1:56 PM 28.0 °F 18.6 °F 25.0 °F 88% 30.21 in 10.0 mi ESE 10.4 mph - N/A   Overcast
2:56 PM 32.0 °F 22.5 °F 26.1 °F 79% 30.20 in 10.0 mi ESE 12.7 mph - N/A   Partly Cloudy
3:56 PM 30.9 °F 21.2 °F 24.1 °F 76% 30.19 in 10.0 mi ESE 12.7 mph - N/A   Clear
4:56 PM 30.0 °F 19.5 °F 23.0 °F 75% 30.17 in 10.0 mi ESE 13.8 mph - N/A   Clear
5:56 PM 28.9 °F 19.8 °F 23.0 °F 78% 30.16 in 10.0 mi East 10.4 mph - N/A   Clear
6:56 PM 27.0 °F 16.1 °F 21.9 °F 81% 30.15 in 10.0 mi East 12.7 mph - N/A   Clear
7:56 PM 25.0 °F 12.2 °F 19.9 °F 81% 30.15 in 10.0 mi ESE 16.1 mph - N/A   Clear
8:56 PM 24.1 °F 12.0 °F 19.9 °F 84% 30.15 in 10.0 mi East 13.8 mph - N/A   Clear
9:56 PM 23.0 °F 10.6 °F 19.0 °F 85% 30.15 in 10.0 mi East 13.8 mph - N/A   Clear
10:56 PM 21.9 °F 8.7 °F 19.0 °F 89% 30.14 in 10.0 mi East 15.0 mph - N/A   Clear
11:56 PM 21.0 °F 8.6 °F 17.1 °F 85% 30.14 in 10.0 mi ESE 12.7 mph - N/A   Clear